TimeEDT,TemperatureF,Dew PointF,Humidity,Sea Level PressureIn,VisibilityMPH,Wind Direction,Wind SpeedMPH,Gust SpeedMPH,PrecipitationIn,Events,Conditions,WindDirDegrees,DateUTC
12:53 AM,62.1,53.1,72,29.92,10.0,South,3.5,-,N/A,,Clear,190,2013-07-23 04:53:00
1:53 AM,61.0,52.0,72,29.90,10.0,South,3.5,-,N/A,,Clear,190,2013-07-23 05:53:00
2:53 AM,60.1,52.0,75,29.89,10.0,SSW,4.6,-,N/A,,Clear,200,2013-07-23 06:53:00
3:53 AM,60.1,52.0,75,29.88,10.0,Variable,3.5,-,N/A,,Overcast,0,2013-07-23 07:53:00
4:53 AM,60.1,52.0,75,29.87,10.0,Calm,Calm,-,N/A,,Overcast,0,2013-07-23 08:53:00
5:53 AM,60.1,53.1,78,29.86,10.0,Calm,Calm,-,N/A,,Mostly Cloudy,0,2013-07-23 09:53:00
6:36 AM,60.8,53.6,77,29.86,10.0,Calm,Calm,-,N/A,,Mostly Cloudy,0,2013-07-23 10:36:00
6:44 AM,60.8,55.4,82,29.86,10.0,Variable,4.6,-,N/A,,Mostly Cloudy,0,2013-07-23 10:44:00
6:53 AM,61.0,55.9,83,29.86,10.0,Calm,Calm,-,N/A,,Overcast,0,2013-07-23 10:53:00
7:53 AM,63.0,60.1,90,29.84,8.0,South,3.5,-,N/A,,Overcast,170,2013-07-23 11:53:00
8:53 AM,63.0,61.0,93,29.82,8.0,Variable,3.5,-,N/A,,Overcast,0,2013-07-23 12:53:00
9:53 AM,63.0,61.0,93,29.80,7.0,Calm,Calm,-,0.00,Rain,Light Rain,0,2013-07-23 13:53:00
10:35 AM,64.4,62.6,94,29.78,6.0,ESE,4.6,-,0.01,Rain,Light Rain,120,2013-07-23 14:35:00
10:53 AM,64.0,63.0,96,29.77,6.0,ESE,6.9,-,0.01,Rain,Light Rain,110,2013-07-23 14:53:00
11:49 AM,66.2,62.6,88,29.74,8.0,ESE,8.1,-,0.02,Rain,Light Rain,110,2013-07-23 15:49:00
11:53 AM,66.0,64.0,93,29.73,8.0,SE,6.9,-,0.02,Rain,Light Rain,130,2013-07-23 15:53:00
12:12 PM,66.2,64.4,94,29.72,7.0,ESE,5.8,-,0.00,Rain,Light Rain,110,2013-07-23 16:12:00
12:44 PM,64.4,62.6,94,29.71,2.5,East,5.8,-,0.07,Rain,Heavy Rain,100,2013-07-23 16:44:00
12:53 PM,64.9,63.0,93,29.70,2.0,East,6.9,-,0.09,Rain,Rain,100,2013-07-23 16:53:00
1:01 PM,64.4,64.4,100,29.70,3.0,East,6.9,-,0.01,Rain,Rain,100,2013-07-23 17:01:00
1:10 PM,66.2,64.4,94,29.69,4.0,East,9.2,-,0.03,Rain,Rain,90,2013-07-23 17:10:00
1:53 PM,64.0,62.1,93,29.66,3.0,East,9.2,-,0.09,Rain,Rain,100,2013-07-23 17:53:00
2:13 PM,64.4,62.6,94,29.64,7.0,East,10.4,16.1,0.01,Rain,Light Rain,100,2013-07-23 18:13:00
2:53 PM,63.0,61.0,93,29.63,7.0,East,8.1,18.4,0.04,Rain,Rain,80,2013-07-23 18:53:00
3:15 PM,62.6,60.8,94,29.63,1.8,East,6.9,-,0.10,Rain,Heavy Rain,80,2013-07-23 19:15:00
3:25 PM,62.6,60.8,94,29.62,3.0,Variable,4.6,-,0.12,Rain,Light Rain,0,2013-07-23 19:25:00
3:53 PM,63.0,61.0,93,29.60,4.0,ENE,4.6,-,0.14,Rain,Light Rain,70,2013-07-23 19:53:00
4:07 PM,62.6,60.8,94,29.60,1.8,ENE,3.5,-,0.06,Rain,Heavy Rain,60,2013-07-23 20:07:00
4:16 PM,62.6,60.8,94,29.59,1.2,ENE,5.8,-,0.13,Rain,Heavy Rain,60,2013-07-23 20:16:00
4:23 PM,62.6,62.6,100,29.59,1.5,NNE,3.5,-,0.16,Rain,Heavy Rain,20,2013-07-23 20:23:00
4:42 PM,62.6,62.6,100,29.58,2.5,ENE,4.6,-,0.26,Rain,Rain,70,2013-07-23 20:42:00
4:53 PM,63.0,61.0,93,29.59,3.0,North,3.5,-,0.28,Rain,Light Rain,350,2013-07-23 20:53:00
5:00 PM,62.6,62.6,100,29.59,8.0,North,3.5,-,0.00,Rain,Light Rain,350,2013-07-23 21:00:00
5:13 PM,62.6,62.6,100,29.58,1.8,North,5.8,-,0.00,Rain,Light Rain,10,2013-07-23 21:13:00
5:23 PM,62.6,62.6,100,29.57,1.2,NNE,5.8,-,0.02,Rain,Light Rain,20,2013-07-23 21:23:00
5:38 PM,62.6,62.6,100,29.58,1.5,North,4.6,-,0.04,Rain,Light Rain,360,2013-07-23 21:38:00
5:49 PM,62.6,62.6,100,29.57,2.5,North,5.8,-,0.04,Rain,Light Rain,10,2013-07-23 21:49:00
5:53 PM,63.0,62.1,97,29.57,1.8,North,6.9,-,0.04,Rain,Light Rain,10,2013-07-23 21:53:00
6:05 PM,62.6,62.6,100,29.56,1.2,NNE,6.9,-,0.01,Rain,Light Rain,20,2013-07-23 22:05:00
6:21 PM,62.6,62.6,100,29.55,2.0,NE,6.9,-,0.01,Rain,Light Rain,40,2013-07-23 22:21:00
6:32 PM,64.4,62.6,94,29.55,4.0,NNE,5.8,-,0.01,,Overcast,30,2013-07-23 22:32:00
6:53 PM,64.0,62.1,93,29.55,9.0,ENE,5.8,-,0.01,,Overcast,60,2013-07-23 22:53:00
7:25 PM,64.4,62.6,94,29.54,10.0,NNE,4.6,-,N/A,,Overcast,30,2013-07-23 23:25:00
7:34 PM,62.6,62.6,100,29.54,6.0,NNE,6.9,20.7,N/A,,Overcast,20,2013-07-23 23:34:00
7:53 PM,63.0,62.1,97,29.53,6.0,East,4.6,-,N/A,,Overcast,80,2013-07-23 23:53:00
8:43 PM,62.6,62.6,100,29.55,3.0,North,4.6,-,N/A,,Overcast,350,2013-07-24 00:43:00
8:53 PM,62.1,62.1,100,29.55,3.0,NNW,3.5,-,N/A,,Overcast,340,2013-07-24 00:53:00
9:03 PM,62.6,62.6,100,29.55,2.0,North,4.6,-,0.01,,Overcast,350,2013-07-24 01:03:00
9:12 PM,62.6,62.6,100,29.55,1.8,NNW,3.5,-,0.01,,Overcast,340,2013-07-24 01:12:00
9:21 PM,62.6,60.8,94,29.55,2.0,NNW,3.5,-,0.01,,Overcast,340,2013-07-24 01:21:00
9:35 PM,62.6,60.8,94,29.55,3.0,Calm,Calm,-,0.01,,Overcast,0,2013-07-24 01:35:00
10:53 PM,62.1,61.0,96,29.53,3.0,NNE,3.5,-,N/A,,Overcast,30,2013-07-24 02:53:00
10:59 PM,62.6,60.8,94,29.53,1.8,NE,3.5,-,N/A,,Overcast,50,2013-07-24 02:59:00
11:08 PM,60.8,60.8,100,29.53,1.0,Calm,Calm,-,N/A,,Overcast,0,2013-07-24 03:08:00
11:22 PM,60.8,60.8,100,29.53,2.0,Calm,Calm,-,N/A,,Overcast,0,2013-07-24 03:22:00
11:35 PM,60.8,60.8,100,29.53,1.2,Calm,Calm,-,N/A,,Overcast,0,2013-07-24 03:35:00
11:53 PM,61.0,61.0,100,29.53,1.5,Calm,Calm,-,N/A,,Overcast,0,2013-07-24 03:53:00